Flag for Belgium Weather past 2 weeks in Liège, Belgium

Now
52 °F

Passing clouds.


Feels Like: 51 °F
Forecast: 47 / 67 °F
Wind: 3 mph from Southwest

Location: Bierset

Current Time: Aug 21, 2014 at 12:28:54 AM

Latest Report: Aug 20, 2014 at 11:50 PM


Visibility: N/A

Pressure: 30.04 "Hg

Humidity: 88%

Dew point: 48 °F

Location of LiègeLocation

Historic Weather in Liège — Graph

°F

Liège temperature yesterday

Maximum temperature yesterday: 63 °F (at 12:50 PM)
Minimum temperature yesterday: 46 °F (at 3:50 AM)
Average temperature yesterday: 54 °F

Past Weeks' High & Low Weather Summary

 TemperatureHumidityPressure
High75 °F (Aug 7, 3:50 PM)100% (Aug 15, 4:20 AM)30.15 "Hg (Aug 15, 4:20 AM)
Low46 °F (Aug 20, 3:50 AM)49% (Aug 5, 10:50 PM)29.56 "Hg (Aug 10, 5:50 PM)
Average60 °F78%29.89 "Hg
* Reported Aug 5 10:20 PM — Aug 20 10:50 PM, Liège, Weather by CustomWeather, © 2014

Note: Actual official high and low records may vary slightly from our data, if they occured in-between our weather recording intervals... More about our weather records

Advertising

Liège weather history for previous 24 hours

 ConditionsComfort  
Time TempWeatherWind HumidityBarometerVisibility
10:50 PM
Aug 20
54 °FPassing clouds.7 mph82%30.04 "HgN/A
10:20 PM54 °FLight rain. Passing clouds.5 mph82%30.04 "HgN/A
9:50 PM54 °FLight rain. Passing clouds.6 mph82%30.04 "HgN/A
9:20 PM54 °FLight rain. Clear.5 mph82%30.04 "HgN/A
8:50 PM54 °FPassing clouds.5 mph82%30.04 "HgN/A
8:20 PM54 °FPassing clouds.2 mph77%30.01 "HgN/A
7:50 PM55 °FPassing clouds.5 mph72%30.01 "HgN/A
7:20 PM55 °FSprinkles. Passing clouds.8 mph72%30.01 "HgN/A
6:50 PM57 °FSprinkles. Passing clouds.8 mph72%30.01 "HgN/A
6:20 PM57 °FPassing clouds.7 mph72%30.01 "HgN/A
5:50 PM57 °FPassing clouds.8 mph72%30.01 "HgN/A
5:20 PM57 °FPassing clouds.7 mph72%30.01 "HgN/A
4:50 PM57 °FSprinkles. Passing clouds.7 mph72%30.01 "HgN/A
4:20 PM55 °FSprinkles. Scattered clouds.15 mph72%30.01 "HgN/A
3:50 PM61 °FPassing clouds.7 mph55%30.01 "HgN/A
3:20 PM61 °FPassing clouds.8 mph55%30.01 "HgN/A
2:50 PM63 °FPassing clouds.10 mph52%30.01 "HgN/A
2:20 PM63 °FPassing clouds.6 mph52%30.01 "HgN/A
1:50 PM61 °FPassing clouds.8 mph52%30.01 "HgN/A
1:20 PM59 °FPassing clouds.9 mph55%30.01 "HgN/A
12:50 PM63 °FPassing clouds.9 mph49%30.04 "HgN/A
12:20 PM61 °FPassing clouds.8 mph59%30.04 "HgN/A
11:50 AM59 °FPassing clouds.9 mph63%30.04 "HgN/A
11:20 AM61 °FPassing clouds.8 mph59%30.04 "HgN/A
10:50 AM59 °FPassing clouds.8 mph63%30.04 "HgN/A
10:20 AM57 °FPassing clouds.7 mph67%30.04 "HgN/A
9:50 AM55 °FSunny.7 mph72%30.04 "Hg10 mi
9:20 AM54 °FSunny.7 mph72%30.04 "Hg10 mi
8:50 AM52 °FSunny.7 mph77%30.04 "Hg10 mi
8:20 AM50 °FPassing clouds.6 mph82%30.04 "HgN/A
7:50 AM48 °FSunny.8 mph82%30.01 "Hg10 mi
7:20 AM46 °FClear.6 mph87%30.01 "Hg10 mi
6:50 AM46 °FClear.7 mph87%30.01 "Hg10 mi
6:20 AM48 °FClear.6 mph82%30.01 "Hg10 mi
5:50 AM48 °FPassing clouds.7 mph82%30.01 "HgN/A
5:20 AM48 °FClear.7 mph87%30.01 "Hg10 mi
4:50 AM48 °FClear.7 mph87%30.01 "Hg10 mi
4:20 AM48 °FPassing clouds.6 mph87%30.01 "HgN/A
3:50 AM46 °FClear.5 mph87%30.01 "Hg10 mi
3:20 AM50 °FClear.6 mph82%30.01 "Hg10 mi
2:50 AM48 °FClear.6 mph87%30.01 "Hg10 mi
2:20 AM48 °FClear.6 mph87%30.01 "Hg10 mi
1:50 AM48 °FClear.7 mph87%30.01 "Hg10 mi
1:20 AM48 °FPassing clouds.3 mph87%30.01 "HgN/A
12:50 AM48 °FClear.6 mph87%30.01 "Hg10 mi
12:20 AM50 °FPassing clouds.3 mph82%30.01 "HgN/A
Weather by CustomWeather, © 2014

See weather overviewHow to use our weather pages